Volver al catálogo

COSMOS 2561

ActivoNavegaciónSSO
NORAD 54109·PAYLOAD·🇷🇺 Russia

Lanzado Oct 21, 2022 desde Plesetsk Cosmodrome

Loading…

Próximos Pases (próximas 24 horas)

TLE

ActualizadoSource: Space-Track

Época: Sep 14, 2026, 05:24 UTC

1 54109U 22137A   26257.22540162  .00012156  00000-0  19068-3 0  9990
2 54109  96.9080 312.9771 0011121  61.3128 298.9243 15.53748059220165

Sigue COSMOS 2561 en tiempo real con AllMySat

Download on the App Store